Date String (YYYY-MM-DD hh:mm:ss) UTC,Instrument flags,Ambient pressure (hPa),Sample flow (lpm),Bypass flow (lpm),Sample temperature (°C),Ambient temperature (°C),ASC tube jacket temperature (°C),LED temperature (°C),Box temperature (°C),Sample RH (%),Span deviation,Mass concentration (μg/m³),Mass concentration (μg/m³),Mass concentration (μg/m³)
DateTimeUTC,F1_M11,P_M11,Q1_M11,Q2_M11,T1_M11,T2_M11,T3_M11,T4_M11,T5_M11,U1_M11,ZSPAN_M11,X0_M11,X2_M11,X1_M11
2021-11-13 06:00:00,,0829.3,4.99,0.00,26.4,25.6,00.0,35.4,28.2,13.8,0000.0,0003.77,0001.00,0000.68
2021-11-13 06:01:00,,0829.3,5.00,0.00,26.4,25.6,00.0,35.4,28.2,13.9,0000.0,0003.08,0000.91,0000.62
2021-11-13 06:02:00,,0829.4,5.00,0.00,26.4,25.5,00.0,35.4,28.2,13.9,0000.0,0002.93,0000.84,0000.59
2021-11-13 06:03:00,,0829.4,5.00,0.00,26.4,25.5,00.0,35.4,28.2,14.0,0000.0,0002.73,0000.76,0000.57
2021-11-13 06:04:00,,0829.3,5.02,0.00,26.3,25.5,00.0,35.4,28.1,14.1,0000.0,0002.75,0000.76,0000.56
2021-11-13 06:05:00,,0829.2,5.00,0.00,26.3,25.4,00.0,35.4,28.1,14.2,0000.0,0002.77,0000.76,0000.55
2021-11-13 06:06:00,,0829.3,5.00,0.00,26.3,25.4,00.0,35.4,28.1,14.4,0000.0,0002.73,0000.74,0000.54
2021-11-13 06:07:00,,0829.3,4.99,0.00,26.3,25.4,00.0,35.4,28.0,14.4,0000.0,0002.73,0000.73,0000.53
2021-11-13 06:08:00,,0829.3,4.99,0.00,26.2,25.4,00.0,35.4,28.0,14.3,0000.0,0001.62,0000.69,0000.50
2021-11-13 06:09:00,,0829.3,5.01,0.00,26.2,25.3,00.0,35.3,28.0,14.3,0000.0,0001.29,0000.68,0000.47
2021-11-13 06:10:00,,0829.3,4.99,0.00,26.2,25.4,00.0,35.3,28.0,14.5,0000.0,0001.25,0000.65,0000.44
2021-11-13 06:11:00,,0829.4,5.00,0.00,26.2,25.4,00.0,35.3,28.0,14.5,0000.0,0001.14,0000.61,0000.42
2021-11-13 06:12:00,,0829.3,5.01,0.00,26.2,25.4,00.0,35.3,28.0,14.4,0000.0,0001.14,0000.59,0000.41
2021-11-13 06:13:00,,0829.3,5.01,0.00,26.2,25.4,00.0,35.3,28.0,14.4,0000.0,0001.17,0000.58,0000.39
2021-11-13 06:14:00,,0829.3,5.00,0.00,26.2,25.4,00.0,35.3,28.0,14.3,0000.0,0001.08,0000.57,0000.38
2021-11-13 06:15:00,,0829.2,4.99,0.00,26.2,25.4,00.0,35.3,28.0,14.3,0000.0,0001.08,0000.56,0000.37
2021-11-13 06:16:00,,0829.2,5.01,0.00,26.3,25.5,00.0,35.3,28.0,14.1,0000.0,0001.01,0000.55,0000.38
2021-11-13 06:17:00,,0829.2,4.99,0.00,26.3,25.5,00.0,35.3,28.0,14.1,0000.0,0001.15,0000.59,0000.38
2021-11-13 06:18:00,,0829.2,5.01,0.00,26.3,25.5,00.0,35.3,28.0,14.1,0000.0,0001.13,0000.59,0000.38
2021-11-13 06:19:00,,0829.2,5.00,0.00,26.3,25.5,00.0,35.3,28.0,14.1,0000.0,0001.11,0000.59,0000.40
2021-11-13 06:20:00,,0829.3,5.00,0.00,26.3,25.5,00.0,35.3,28.0,14.1,0000.0,0001.07,0000.59,0000.42
2021-11-13 06:21:00,,0829.2,5.00,0.00,26.3,25.5,00.0,35.3,28.0,14.1,0000.0,0001.29,0000.60,0000.43
2021-11-13 06:22:00,,0829.3,5.00,0.00,26.3,25.5,00.0,35.3,28.1,14.1,0000.0,0002.00,0000.65,0000.44
2021-11-13 06:23:00,,0829.2,5.00,0.00,26.3,25.5,00.0,35.3,28.1,14.1,0000.0,0001.98,0000.66,0000.45
2021-11-13 06:24:00,,0829.3,5.01,0.00,26.3,25.5,00.0,35.3,28.1,14.1,0000.0,0001.90,0000.65,0000.45
2021-11-13 06:25:00,,0829.3,5.01,0.00,26.4,25.5,00.0,35.3,28.2,14.0,0000.0,0002.00,0000.66,0000.46
2021-11-13 06:26:00,,0829.3,5.00,0.00,26.4,25.6,00.0,35.3,28.2,14.0,0000.0,0001.97,0000.66,0000.47
2021-11-13 06:27:00,,0829.2,5.00,0.00,26.4,25.6,00.0,35.3,28.1,14.0,0000.0,0001.95,0000.65,0000.47
2021-11-13 06:28:00,,0829.2,5.00,0.00,26.4,25.6,00.0,35.3,28.1,14.0,0000.0,0001.89,0000.64,0000.48
2021-11-13 06:29:00,,0829.2,5.00,0.00,26.4,25.6,00.0,35.4,28.2,14.0,0000.0,0002.08,0000.68,0000.49
2021-11-13 06:30:00,,0829.2,5.01,0.00,26.4,25.6,00.0,35.4,28.2,13.7,0000.0,0002.23,0000.74,0000.52
2021-11-13 06:31:00,,0829.4,4.99,0.00,26.4,25.6,00.0,35.4,28.2,13.6,0000.0,0002.39,0000.79,0000.54
2021-11-13 06:32:00,,0829.3,5.00,0.00,26.4,25.6,00.0,35.4,28.2,13.5,0000.0,0002.82,0000.85,0000.57
2021-11-13 06:33:00,,0829.2,5.02,0.00,26.4,25.6,00.0,35.4,28.1,13.6,0000.0,0003.00,0000.89,0000.60
2021-11-13 06:34:00,,0829.2,5.01,0.00,26.4,25.6,00.0,35.4,28.2,13.5,0000.0,0004.55,0000.95,0000.63
2021-11-13 06:35:00,,0829.3,5.00,0.00,26.4,25.6,00.0,35.4,28.2,13.6,0000.0,0004.62,0000.99,0000.66
2021-11-13 06:36:00,,0829.3,5.00,0.00,26.4,25.6,00.0,35.4,28.2,13.5,0000.0,0004.84,0001.04,0000.69
2021-11-13 06:37:00,,0829.3,5.00,0.00,26.4,25.6,00.0,35.4,28.2,13.5,0000.0,0004.99,0001.07,0000.71
2021-11-13 06:38:00,,0829.3,5.00,0.00,26.4,25.6,00.0,35.4,28.2,13.5,0000.0,0005.67,0001.10,0000.73
2021-11-13 06:39:00,,0829.5,5.01,0.00,26.4,25.6,00.0,35.4,28.2,13.4,0000.0,0005.85,0001.14,0000.76
2021-11-13 06:40:00,,0829.3,5.00,0.00,26.4,25.6,00.0,35.4,28.2,13.4,0000.0,0005.76,0001.15,0000.78
2021-11-13 06:41:00,,0829.3,4.99,0.00,26.4,25.6,00.0,35.4,28.2,13.4,0000.0,0005.92,0001.24,0000.80
2021-11-13 06:42:00,,0829.4,4.99,0.00,26.4,25.6,00.0,35.4,28.1,13.5,0000.0,0006.04,0001.30,0000.79
2021-11-13 06:43:00,,0829.3,5.00,0.00,26.4,25.6,00.0,35.4,28.1,13.5,0000.0,0005.75,0001.25,0000.78
2021-11-13 06:44:00,,0829.3,5.00,0.00,26.4,25.6,00.0,35.4,28.2,13.5,0000.0,0004.99,0001.23,0000.77
2021-11-13 06:45:00,,0829.2,5.01,0.00,26.4,25.6,00.0,35.4,28.2,13.6,0000.0,0003.58,0001.24,0000.76
2021-11-13 06:46:00,,0829.2,5.00,0.00,26.4,25.6,00.0,35.4,28.2,13.6,0000.0,0003.27,0001.23,0000.75
2021-11-13 06:47:00,,0829.2,5.00,0.00,26.4,25.6,00.0,35.4,28.2,13.9,0000.0,0003.09,0001.21,0000.74
2021-11-13 06:48:00,,0829.2,5.00,0.00,26.4,25.6,00.0,35.4,28.2,14.0,0000.0,0002.91,0001.18,0000.72
2021-11-13 06:49:00,,0829.2,5.00,0.00,26.4,25.6,00.0,35.4,28.2,13.9,0000.0,0003.16,0001.17,0000.71
2021-11-13 06:50:00,,0829.2,5.00,0.00,26.4,25.6,00.0,35.4,28.2,13.9,0000.0,0003.14,0001.15,0000.69
2021-11-13 06:51:00,,0829.2,4.99,0.00,26.4,25.6,00.0,35.4,28.2,13.8,0000.0,0003.12,0001.15,0000.67
2021-11-13 06:52:00,,0829.1,5.00,0.00,26.4,25.6,00.0,35.4,28.2,13.8,0000.0,0002.92,0001.06,0000.65
2021-11-13 06:53:00,,0829.0,5.00,0.00,26.4,25.6,00.0,35.4,28.2,13.8,0000.0,0002.66,0000.94,0000.64
2021-11-13 06:54:00,,0829.1,5.00,0.00,26.4,25.6,00.0,35.4,28.2,13.8,0000.0,0002.67,0000.93,0000.63
2021-11-13 06:55:00,,0829.0,4.99,0.00,26.4,25.6,00.0,35.4,28.2,13.8,0000.0,0002.51,0000.90,0000.61
2021-11-13 06:56:00,,0829.1,5.00,0.00,26.4,25.6,00.0,35.4,28.2,13.9,0000.0,0002.33,0000.81,0000.60
2021-11-13 06:57:00,,0829.0,4.99,0.00,26.5,25.6,00.0,35.4,28.2,14.0,0000.0,0002.25,0000.77,0000.58
2021-11-13 06:58:00,,0828.9,4.99,0.00,26.4,25.6,00.0,35.4,28.3,14.2,0000.0,0002.17,0000.74,0000.56
2021-11-13 06:59:00,,0829.0,5.00,0.00,26.4,25.6,00.0,35.4,28.2,14.3,0000.0,0002.18,0000.73,0000.56
